Orbital Elements
Epoch 2022 Jan. 21.0 TT = JDT 2459600.5
T 2022 Feb. 3.98104 TT Rudenko
q 2.9462998 (2000.0) P Q
z -0.0004865 Peri. 125.02983 -0.26329868 -0.52769414
+/-0.0000003 Node 305.67863 +0.15104251 +0.80426233
e 1.0014333 Incl. 83.83072 +0.95281686 -0.27331483
From 569 observations 2021 Feb. 19-2022 Feb. 21, mean residual 0".7.
|